Regional Weather Roundup
Issued by NWS New Orleans/Baton Rouge, LA

Home | Current Version | Previous Version | Text Only | Print | Product List | Glossary On
Versions: 1 2 3 4 5 6 7 8 9 10 11 12 13 14 15 16 17 18 19 20 21 22 23 24 25 26 27 28 29 30 31 32 33 34 35 36 37 38 39 40 41 42 43 44 45 46 47 48 49 50
549
ASUS44 KLIX 210210
RWRLIX
NEW ORLEANS REGIONAL WEATHER ROUNDUP
NATIONAL WEATHER SERVICE NEW ORLEANS LA
900 PM CDT SAT SEP 20 2014

NOTE: "FAIR" INDICATES FEW OR NO CLOUDS BELOW 12,000 FEET WITH NO
      SIGNIFICANT WEATHER AND/OR OBSTRUCTIONS TO VISIBILITY.
      SKY/WX - SKY CONDITION AND SIGNIFICANT WEATHER.
      TMP - AIR TEMPERATURE.     DP    - DEWPOINT TEMPERATURE.
      RH  - RELATIVE HUMIDITY.   PRES  - PRESSURE.
      HI  - HEAT INDEX.          WCI   - WIND CHILL INDEX.

*  THESE STATIONS ARE NOT NWS OR FAA STATIONS AND ARE NOT UNDER
   NWS QUALITY CONTROL.

LAZ038-040-048-061>063-065>067-069-210300-
SOUTHEAST LOUISIANA

CITY           SKY/WX    TMP DP  RH WIND       PRES   REMARKS
N.O. AUDUBON     N/A     82  73  74 MISG        N/A
N.O. INTL ARPT PTCLDY    81  69  67 E8        29.97R
N.O. LAKEFRONT CLEAR     80  72  76 E9        29.98R
N.O. DOWNTOWN*   N/A     81  70  69 E3        29.98R
SLIDELL        CLEAR     76  71  85 CALM      29.97R
BATON ROUGE    CLEAR     75  70  84 E3        29.97R
BOOTHVILLE     PTCLDY    80  71  74 E12       29.97R
BELLE CHASSE   PTCLDY    76  70  82 E5        29.97R
BOGALUSA*        N/A     74  69  84 CALM      29.99R
GALLIANO*      NOT AVBL
NEW ROADS*       N/A     76  70  83 CALM      29.97R
GONZALES*        N/A     73  73 100 CALM      29.97R
HAMMOND*       PTCLDY    77  70  78 CALM      29.99R
HOUMA*         CLEAR     76  61  61 E3        29.97R
PORT FOURCHON* PTCLDY    81  72  74 E15G22    29.98R

$$

MSZ070-080>082-210300-
SOUTHERN MISSISSIPPI

CITY           SKY/WX    TMP DP  RH WIND       PRES   REMARKS
MCCOMB         CLEAR     78  68  71 CALM      29.99R
GULFPORT       CLEAR     78  68  71 E7        29.97R
BILOXI         CLEAR     79  69  71 E7        29.98R
PASCAGOULA     CLEAR     71  68  90 NE3       29.99R

$$

COASTAL OBSERVATIONS
LAKE AND NEARSHORE STATIONS

STATION/POSITION TIME  TEMP    WIND        PRES    WAVE
                       AIR SEA DIR/SP/G            HT/PER
                 (UTC) (F)     (DEG/KT/KT) (MB)    (FT/S)
PASCAGOULA       0200   79      50/  8/ 11 1014.9
WAVELAND YACHT   0200   81      90/  8/ 11 1014.3
GRAND ISLE       0200   81 83   90/ 11/ 17 1014.9
SOUTHWEST PASS   0200   81 90   70/ 19/ 23 1014.4
NEW CANAL        0200   80 81   80/  1/  3 1015.3
SHELL BEACH      0200   80 79   90/ 10/ 12 1014.7

OFFSHORE STATIONS

STATION/POSITION TIME  TEMP    WIND        PRES    WAVE
                       AIR SEA DIR/SP/G            HT/PER
                 (UTC) (F)     (DEG/KT/KT) (MB)    (FT/S)
64 S DAUPHIN ISL 0055   81 84   70/ 17/ 19 1014.8    5/ 6

$$




USA.gov is the U.S. government's official web portal to all federal, state and local government web resources and services.